Temperature
18 18 17 17 17 17 17 17 17 17 17 17 17 17 17 17 16 16 16 16 16 16 16 16 16 15 15 15 15 15 15 15 15 15 15 15 15 15 15 15 15 15 15
18 18 17 17 17 17 17 17 17 17 17 17 17 17 17 17 16 16 16 16 16 16 15 15 15 15 15 15 15 15 15 15 15 15 15 15 15 15 15 14 14 14 14
18 18 17 17 17 17 17 17 17 17 17 17 17 17 16 16 16 16 16 16 16 15 15 15 15 15 15 15 15 15 15 15 14 14 14 14 14 14 14 14 14 14 14
18 18 17 17 17 17 17 17 17 17 17 17 17 16 16 16 16 16 16 15 15 15 15 15 15 15 15 14 14 14 15 14 14 14 14 14 14 14 14 14 14 13 13
18 17 17 17 17 17 17 17 17 17 17 16 16 16 16 16 16 16 16 15 15 15 15 15 15 15 14 14 14 14 14 14 14 14 14 14 14 13 13 13 13 13 13
17 17 17 17 17 17 17 17 17 17 16 16 16 16 16 16 16 16 15 15 15 15 15 15 15 15 14 14 14 14 14 14 14 14 14 13 13 13 13 13 13 13 13
17 17 17 17 17 17 16 16 16 16 16 16 16 16 16 16 16 15 15 15 15 15 15 15 14 14 14 14 14 14 14 14 14 14 13 13 13 13 13 13 13 13 13
17 16 16 16 16 16 16 16 16 16 16 16 16 16 16 16 15 15 15 15 15 15 14 14 14 14 14 14 14 14 14 14 13 13 13 13 13 13 13 13 13 12 12
16 16 16 16 16 16 16 16 16 16 16 16 16 16 16 15 15 15 15 15 14 14 14 14 14 14 14 14 14 14 13 13 13 13 13 13 13 13 12 12 12 12 12
16 16 16 16 16 16 16 16 16 16 16 16 16 16 15 15 15 15 15 15 14 14 14 14 14 14 14 14 13 13 13 13 13 13 13 13 12 12 12 12 12 12 12
15 15 15 16 16 15 15 15 15 15 15 15 15 15 15 15 15 15 15 14 14 14 14 14 14 14 14 13 13 13 13 13 13 13 13 12 12 12 12 12 12 12 12
15 15 15 15 15 15 15 15 15 15 15 15 15 15 15 15 15 15 14 14 14 14 14 14 14 13 13 13 13 13 13 13 13 13 12 12 12 12 12 12 12 11 11
15 15 15 15 15 15 15 15 15 15 15 15 15 15 15 15 15 14 14 14 14 14 14 14 13 13 13 13 13 13 12 12 12 12 12 12 12 11 11 11 11 11 11
14 15 15 15 15 15 15 15 15 15 15 15 15 15 15 14 14 14 14 14 14 14 14 13 13 13 13 13 12 12 12 12 12 12 12 12 11 11 11 11 11 11 11
14 14 14 15 15 15 15 15 15 15 15 15 14 14 14 14 14 14 14 14 14 13 13 13 13 13 13 12 12 12 12 12 12 12 12 11 11 11 11 10 10 10 10
14 14 15 15 15 14 14 15 15 14 14 14 14 14 14 14 14 14 14 13 13 13 13 13 13 13 12 12 12 12 12 12 12 11 11 11 11 11 10 10 10 10 10
14 14 14 15 14 14 14 14 14 14 14 14 14 14 14 14 14 13 13 13 13 13 13 12 12 12 12 12 12 12 11 11 11 11 11 11 11 10 10 10 10 10 10
14 14 14 14 14 14 14 14 14 14 14 14 14 14 14 13 13 13 13 13 13 12 12 12 12 12 12 12 12 11 11 11 11 11 11 10 10 10 10 10 10 10 9
14 14 14 14 14 14 14 14 14 14 14 14 14 13 13 13 13 13 13 13 12 12 12 12 12 12 12 11 11 11 11 11 11 10 10 10 10 10 10 10 9 9 9
14 14 14 14 14 14 14 14 14 14 13 13 13 13 13 13 13 13 13 12 12 12 12 12 12 11 11 11 11 11 11 10 10 10 10 10 10 10 9 9 9 9 9
13 13 14 14 14 14 14 14 13 13 13 13 13 13 13 13 12 12 12 12 12 12 12 12 11 11 11 11 11 10 10 10 10 10 10 10 10 9 9 9 9 9 9
13 13 13 13 14 14 14 14 13 13 13 13 13 13 12 12 12 12 12 12 12 12 11 11 11 11 11 10 10 10 9 10 10 10 10 9 9 9 9 9 9 9 8
13 13 13 13 13 13 13 13 13 13 13 13 13 12 12 12 12 12 12 12 12 12 11 11 11 11 11 10 10 9 9 9 9 9 9 9 9 9 9 9 9 8 8
12 12 13 13 13 13 13 13 13 13 13 13 13 12 12 12 12 12 12 12 11 11 11 11 11 10 10 10 10 9 9 9 9 9 9 9 9 9 9 9 8 8 8
12 12 12 13 13 13 13 13 13 13 13 13 12 12 12 12 12 11 11 11 11 11 11 11 10 10 10 9 9 9 9 8 8 8 8 8 8 8 8 8 8 8 8
11 12 12 12 12 13 12 12 12 12 12 12 12 12 12 11 11 11 11 11 11 11 11 10 10 10 9 9 9 9 8 8 8 8 7 7 8 8 8 8 8 7 7
Wind_Speed
6 10 16 16 17 17 17 17 17 17 17 17 17 17 17 16 16 16 15 15 15 15 16 17 16 17 17 17 17 17 17 17 17 17 17 17 16 16 16 16 15 15 16
10 13 18 17 17 17 17 17 17 17 17 17 17 17 16 16 16 15 15 15 15 15 16 16 16 16 16 16 17 17 17 17 17 17 16 15 16 16 16 15 14 14 15
12 14 17 18 18 17 18 18 18 17 17 17 17 16 16 16 15 15 15 15 15 15 16 16 16 15 15 16 16 16 16 16 16 15 14 13 14 15 15 15 15 15 15
13 14 16 18 18 18 18 18 18 17 17 16 16 16 16 15 15 15 14 14 15 15 15 15 15 15 15 15 16 15 15 15 15 14 13 12 12 14 15 15 14 14 14
11 14 16 19 19 18 18 17 17 17 17 16 16 15 15 15 15 14 14 14 15 15 14 14 14 14 14 15 15 15 15 15 14 14 13 12 12 14 14 14 14 14 14
10 13 17 19 19 18 18 17 17 17 16 16 15 15 15 15 14 14 14 14 14 13 14 14 13 13 14 15 15 15 15 14 14 13 12 12 11 13 14 14 14 14 13
10 12 17 19 19 18 18 17 16 16 16 16 15 15 15 15 14 14 14 14 13 13 13 13 13 13 14 14 14 14 14 14 13 12 11 11 11 12 13 13 13 13 13
10 11 15 18 19 18 18 17 17 16 16 16 15 15 15 15 14 14 14 13 13 13 13 13 13 13 13 13 13 13 13 12 12 11 10 10 11 11 12 12 12 12 12
8 9 10 14 17 18 18 17 17 16 16 16 15 14 14 14 14 13 13 13 13 13 13 13 13 13 13 13 13 13 13 13 12 10 9 9 10 10 11 11 11 11 11
7 7 8 11 13 14 15 16 16 16 16 15 15 14 14 13 13 13 13 12 12 12 12 13 13 13 13 13 12 13 12 12 11 10 9 9 9 10 10 10 11 11 11
7 6 8 9 10 12 13 14 15 15 15 15 14 14 13 12 12 11 11 12 11 11 12 12 13 13 13 12 12 12 11 10 10 9 8 8 9 9 10 10 10 10 10
10 8 7 8 9 10 11 11 11 11 12 12 13 13 11 11 10 10 11 11 11 11 11 11 12 12 11 11 10 10 10 9 9 7 7 8 8 9 9 9 9 9 9
10 8 8 8 9 9 8 9 8 9 10 11 12 12 11 10 9 9 8 9 9 9 9 10 10 10 9 9 8 9 9 8 7 7 7 7 7 7 8 8 8 8 7
9 9 8 8 8 9 9 8 8 8 8 8 10 12 11 8 7 7 6 7 7 7 8 8 8 8 9 8 8 8 7 6 6 6 7 7 7 6 6 6 6 6 6
10 9 9 8 9 8 8 7 7 7 7 9 10 10 11 8 6 6 5 6 6 7 7 7 7 7 7 7 7 6 6 6 6 6 6 7 7 6 6 6 5 5 5
11 10 9 9 9 9 8 7 7 7 8 9 9 10 11 9 8 6 5 5 5 6 7 7 6 6 5 5 5 5 5 5 5 5 5 6 6 6 5 5 5 5 5
10 10 10 10 9 9 9 8 8 8 9 7 8 10 10 10 9 7 5 4 5 7 7 7 6 6 4 4 3 3 4 4 4 4 4 5 5 6 6 5 5 5 5
9 10 10 9 10 10 9 8 7 8 8 7 8 9 10 10 10 8 5 4 6 7 7 5 4 3 3 3 2 1 2 3 3 3 4 4 4 5 5 6 5 5 5
10 10 10 9 10 9 8 8 7 7 7 7 8 8 9 9 10 8 6 5 7 6 4 4 3 3 3 2 2 2 2 2 2 2 3 2 3 4 5 5 5 6 6
8 8 9 8 9 8 7 6 5 5 5 6 7 8 9 9 10 9 7 7 7 5 3 3 3 3 3 3 3 2 1 1 1 1 1 1 2 2 3 4 5 5 6
6 7 9 8 9 8 7 7 7 6 5 4 5 7 9 9 10 9 6 6 6 5 5 5 4 4 2 2 2 1 2 1 0 0 0 1 1 1 2 3 3 4 5
6 7 8 9 9 8 6 6 5 5 4 4 4 6 8 9 10 9 7 6 5 5 5 5 4 3 2 1 2 2 1 2 2 1 1 1 1 1 2 2 3 3 4
6 7 8 9 8 8 7 6 5 4 4 3 4 4 5 9 10 9 9 7 6 6 6 6 5 5 3 1 1 3 2 3 2 2 1 1 1 1 2 2 3 4 4
6 6 7 8 8 8 8 8 10 7 6 5 5 5 5 7 8 9 9 8 7 6 6 5 4 4 4 3 1 0 1 3 2 2 2 2 2 2 2 2 3 4 5
4 5 5 6 7 7 8 9 10 7 5 4 4 5 5 4 6 8 8 7 6 5 5 5 4 4 4 4 3 2 1 1 1 2 3 3 3 2 3 3 3 4 5
1 3 3 5 6 6 8 9 9 10 8 8 7 6 5 3 4 5 6 6 6 5 5 5 5 5 4 4 3 3 3 2 2 2 3 4 4 3 3 3 3 4 5
Wind_Direction
164 160 155 149 144 139 133 129 125 121 119 117 116 115 113 110 107 106 104 101 99 99 99 97 94 93 92 91 88 86 84 82 79 79 79 80 81 81 79 78 76 72 73
150 155 153 150 146 142 137 132 127 124 121 119 117 117 115 112 110 108 106 104 102 100 99 99 96 92 91 91 90 88 85 83 80 78 76 77 80 80 78 77 76 76 74
143 149 149 149 147 143 138 133 130 127 124 122 119 118 116 114 113 111 109 107 105 102 98 97 95 93 92 93 92 90 89 86 82 77 72 68 74 78 77 74 72 72 71
142 145 148 147 146 143 140 136 133 130 127 125 123 121 119 117 114 112 111 109 105 102 98 96 96 95 94 94 94 92 90 89 82 76 68 66 71 77 76 74 72 71 68
139 143 147 147 145 143 141 138 136 134 131 129 127 125 122 119 117 114 113 110 106 104 102 99 97 96 96 96 94 93 92 89 83 75 70 65 68 77 76 73 72 71 68
138 141 148 147 146 145 142 140 138 136 133 131 129 128 125 123 120 117 114 111 109 106 105 101 98 97 98 97 95 95 93 90 83 75 70 69 71 77 76 73 71 70 66
142 142 150 149 149 147 144 142 140 139 137 134 131 131 129 126 123 120 117 115 111 107 106 104 100 99 99 98 98 97 94 90 83 76 71 70 73 76 74 72 69 67 64
142 142 149 151 150 149 147 144 142 139 137 134 132 131 129 127 124 122 120 117 115 111 108 106 102 100 99 99 100 99 94 91 84 77 73 72 74 73 74 72 69 66 62
136 138 142 149 149 149 147 145 144 141 138 135 132 129 127 125 124 122 121 118 114 110 106 105 102 101 99 100 101 100 94 89 82 77 76 76 75 72 73 71 68 65 62
138 141 141 142 143 144 146 145 144 142 139 136 131 127 123 121 121 121 120 119 116 112 108 106 104 101 100 100 101 99 94 86 79 76 76 77 77 74 72 71 67 63 60
153 151 147 142 140 141 143 144 142 141 138 134 130 127 121 116 116 116 119 120 117 113 110 108 104 100 98 96 96 97 92 85 79 73 74 78 77 76 72 68 65 62 59
170 167 156 150 146 141 142 140 138 137 134 132 131 128 123 119 118 117 116 115 113 109 106 104 101 97 94 91 89 89 87 84 76 69 74 78 78 76 71 66 64 61 57
173 169 164 158 151 144 139 139 137 137 134 133 134 132 128 120 116 113 110 106 104 103 100 97 93 93 94 94 91 88 86 82 76 67 69 75 77 75 69 62 60 56 53
173 173 168 161 156 150 144 145 144 143 141 139 141 139 134 126 120 119 115 112 107 108 105 99 96 95 94 94 95 91 86 82 76 66 63 70 72 70 65 55 52 49 45
180 176 172 163 163 158 150 151 149 150 150 149 148 148 144 137 132 129 124 120 118 119 115 111 106 100 95 90 91 92 88 82 79 71 64 65 63 58 53 43 39 39 39
185 179 173 171 168 162 160 158 156 155 153 151 152 154 151 147 142 138 130 126 128 131 128 123 117 109 101 97 88 89 91 89 85 78 70 62 55 52 42 32 28 27 26
189 182 178 176 170 169 165 162 158 158 155 154 156 156 154 152 150 145 135 133 141 139 129 118 110 105 101 94 82 79 87 88 86 80 75 70 57 48 40 28 18 13 11
186 184 182 180 173 172 169 162 158 157 155 156 158 157 158 157 155 147 138 141 146 138 133 121 110 108 105 105 96 71 77 85 83 81 81 76 64 52 41 29 19 9 1
190 185 180 177 175 174 166 158 152 152 153 157 158 159 161 159 156 150 144 147 145 134 128 127 115 121 119 111 102 76 57 65 72 80 79 73 67 55 45 30 18 6 355
189 184 180 174 170 166 156 146 143 142 150 156 161 165 165 163 160 152 146 147 144 131 128 127 123 106 115 119 99 69 43 50 74 82 104 75 60 44 39 25 15 3 352
183 182 180 177 172 166 168 168 166 171 169 164 166 166 167 165 164 157 147 145 145 149 153 145 131 117 104 111 99 52 6 352 49 227 60 46 17 4 28 8 359 353 346
190 190 185 184 178 177 178 174 167 158 160 161 156 160 170 169 167 162 152 152 152 150 146 148 139 131 120 123 134 125 340 332 321 293 285 254 311 354 355 336 338 336 335
196 197 194 188 182 179 168 153 138 127 122 147 165 172 175 172 169 164 162 157 156 160 168 171 164 153 162 170 129 147 159 229 298 312 296 297 301 310 317 320 321 315 311
210 202 194 186 183 179 169 168 167 173 176 184 179 175 167 167 165 166 164 162 162 163 171 176 171 166 156 169 158 73 153 155 172 301 308 309 304 282 274 303 305 299 299
211 196 190 182 182 180 177 176 174 175 174 159 152 158 168 167 166 166 165 162 162 165 170 170 170 170 173 174 173 162 144 96 151 194 278 304 311 281 263 275 282 290 295
205 191 180 176 179 179 180 178 178 175 170 162 165 174 175 172 166 163 162 163 165 165 171 175 175 175 181 175 177 176 171 171 185 189 235 273 287 288 282 272 268 282 294
Height
1509 1512 1515 1518 1520 1522 1524 1526 1527 1529 1530 1531 1532 1533 1534 1535 1536 1538 1539 1539 1540 1541 1542 1543 1543 1544 1544 1545 1545 1546 1546 1547 1547 1547 1548 1548 1548 1548 1548 1548 1549 1549 1549
1507 1511 1515 1517 1520 1522 1525 1526 1528 1529 1531 1532 1533 1534 1535 1536 1537 1538 1539 1540 1541 1542 1543 1544 1545 1545 1546 1546 1547 1547 1548 1548 1549 1549 1549 1550 1550 1550 1550 1550 1550 1550 1550
1507 1511 1514 1517 1520 1523 1525 1527 1528 1530 1531 1533 1534 1535 1536 1537 1538 1539 1540 1542 1543 1544 1544 1545 1546 1546 1547 1548 1548 1549 1549 1550 1550 1551 1551 1551 1551 1552 1552 1552 1552 1551 1551
1507 1511 1514 1517 1520 1523 1525 1527 1529 1531 1532 1533 1535 1536 1537 1538 1539 1540 1541 1542 1543 1544 1545 1546 1547 1548 1548 1549 1550 1550 1551 1552 1552 1552 1553 1553 1553 1553 1553 1553 1553 1552 1552
1508 1511 1514 1517 1520 1523 1525 1527 1529 1531 1533 1534 1536 1537 1538 1539 1540 1541 1542 1543 1544 1545 1546 1547 1548 1549 1550 1550 1551 1552 1552 1553 1553 1554 1554 1554 1554 1554 1554 1554 1554 1553 1553
1508 1511 1515 1517 1520 1523 1526 1528 1530 1532 1533 1535 1536 1538 1539 1540 1541 1542 1543 1544 1545 1546 1547 1548 1549 1550 1551 1552 1552 1553 1554 1554 1555 1555 1555 1555 1555 1555 1555 1555 1554 1554 1554
1508 1512 1515 1518 1521 1523 1526 1528 1530 1532 1534 1535 1537 1538 1540 1541 1542 1543 1544 1545 1546 1547 1548 1549 1550 1551 1552 1553 1553 1554 1555 1555 1556 1556 1556 1556 1556 1556 1556 1555 1555 1555 1554
1509 1512 1515 1518 1521 1524 1526 1528 1530 1532 1534 1536 1537 1539 1540 1542 1543 1544 1545 1546 1547 1548 1549 1550 1551 1552 1553 1554 1554 1555 1556 1556 1557 1557 1557 1557 1557 1557 1556 1556 1555 1555 1555
1510 1512 1515 1518 1521 1524 1526 1529 1531 1533 1535 1536 1538 1540 1541 1542 1544 1545 1546 1547 1548 1549 1550 1551 1552 1553 1554 1554 1555 1556 1557 1557 1558 1558 1558 1558 1557 1557 1557 1556 1556 1555 1555
1510 1513 1515 1518 1521 1523 1526 1528 1531 1533 1535 1537 1539 1540 1542 1543 1544 1545 1547 1548 1549 1550 1551 1552 1552 1553 1554 1555 1556 1557 1557 1558 1558 1558 1558 1558 1558 1557 1557 1557 1556 1556 1555
1510 1512 1515 1517 1520 1523 1525 1528 1531 1533 1535 1537 1539 1540 1542 1543 1544 1546 1547 1548 1549 1550 1551 1552 1553 1554 1555 1556 1557 1557 1558 1558 1558 1558 1558 1558 1558 1558 1557 1557 1556 1556 1556
1507 1511 1514 1517 1519 1522 1525 1528 1530 1532 1535 1537 1538 1540 1542 1543 1545 1546 1547 1548 1549 1551 1552 1553 1554 1554 1555 1556 1557 1558 1558 1558 1558 1558 1558 1558 1558 1558 1557 1557 1556 1556 1556
1506 1509 1512 1515 1519 1521 1524 1526 1529 1532 1534 1536 1538 1540 1541 1543 1544 1546 1547 1548 1549 1550 1552 1553 1554 1555 1556 1556 1557 1558 1558 1558 1558 1558 1558 1558 1558 1558 1557 1557 1556 1556 1555
1505 1508 1511 1514 1517 1520 1523 1525 1528 1531 1533 1535 1537 1539 1541 1542 1544 1545 1546 1548 1549 1550 1551 1552 1553 1554 1555 1556 1557 1557 1558 1558 1558 1558 1558 1558 1558 1557 1557 1557 1556 1556 1555
1503 1506 1509 1512 1516 1519 1522 1524 1527 1529 1532 1534 1536 1538 1540 1541 1543 1544 1546 1547 1548 1549 1551 1552 1553 1554 1555 1556 1556 1557 1557 1557 1557 1557 1557 1557 1557 1557 1557 1556 1555 1555 1554
1501 1504 1507 1510 1514 1517 1520 1523 1525 1528 1531 1533 1535 1537 1539 1541 1542 1543 1545 1546 1548 1549 1550 1551 1552 1553 1554 1555 1556 1556 1556 1557 1557 1557 1557 1557 1556 1556 1556 1555 1555 1554 1553
1499 1502 1505 1508 1512 1515 1518 1521 1524 1526 1529 1531 1533 1536 1538 1539 1541 1543 1544 1545 1546 1548 1549 1550 1551 1552 1553 1554 1554 1555 1555 1555 1556 1556 1556 1556 1555 1555 1555 1554 1553 1553 1552
1497 1500 1503 1506 1509 1513 1516 1519 1522 1525 1527 1530 1532 1534 1536 1538 1540 1541 1543 1544 1545 1547 1548 1549 1550 1551 1552 1552 1553 1554 1554 1554 1554 1554 1554 1554 1554 1554 1553 1553 1552 1551 1550
1494 1497 1500 1504 1507 1510 1514 1517 1520 1522 1525 1528 1530 1532 1534 1536 1538 1540 1541 1543 1544 1545 1547 1548 1549 1550 1550 1551 1551 1552 1552 1552 1552 1553 1553 1553 1553 1552 1552 1551 1550 1549 1548
1492 1495 1498 1501 1504 1507 1511 1514 1517 1520 1523 1525 1528 1530 1532 1534 1536 1538 1540 1541 1542 1544 1545 1546 1547 1548 1549 1549 1549 1550 1550 1550 1550 1550 1551 1551 1551 1550 1549 1549 1548 1547 1546
1489 1492 1494 1498 1501 1504 1507 1510 1513 1516 1520 1523 1525 1528 1530 1532 1534 1536 1537 1539 1540 1542 1543 1544 1545 1546 1547 1547 1548 1547 1548 1548 1548 1548 1548 1548 1548 1547 1547 1546 1545 1544 1543
1485 1488 1491 1495 1498 1501 1504 1507 1511 1514 1517 1520 1523 1525 1527 1529 1531 1533 1535 1536 1538 1539 1540 1542 1543 1543 1544 1545 1546 1546 1545 1546 1545 1546 1545 1545 1545 1545 1544 1543 1542 1541 1540
1481 1484 1488 1491 1494 1498 1501 1504 1508 1511 1514 1517 1519 1521 1524 1526 1529 1530 1532 1534 1535 1536 1537 1538 1540 1541 1541 1542 1543 1544 1544 1543 1543 1543 1542 1542 1542 1542 1541 1540 1539 1538 1537
1477 1481 1485 1488 1491 1494 1497 1500 1503 1506 1508 1511 1515 1518 1521 1523 1526 1528 1529 1531 1532 1533 1534 1535 1537 1538 1538 1539 1540 1541 1542 1541 1541 1540 1540 1540 1539 1539 1538 1537 1536 1535 1533
1474 1477 1481 1484 1487 1490 1493 1497 1500 1503 1506 1509 1512 1515 1517 1520 1522 1524 1526 1527 1529 1530 1531 1532 1533 1534 1535 1536 1536 1537 1538 1538 1538 1538 1536 1536 1536 1535 1535 1534 1532 1531 1530
1470 1474 1477 1480 1483 1486 1490 1493 1496 1499 1502 1505 1508 1510 1513 1516 1518 1520 1522 1524 1525 1526 1528 1529 1530 1531 1532 1532 1533 1534 1534 1534 1534 1534 1533 1531 1531 1530 1530 1529 1528 1527 1526